Regional Weather Roundup
Issued by NWS Wakefield, VA

Home | Current Version | Previous Version | Text Only | Print | Product List | Glossary On
Versions: 1 2 3 4 5 6 7 8 9 10 11 12 13 14 15 16 17 18 19 20 21 22 23 24 25 26 27 28 29 30 31 32 33 34 35 36 37 38 39 40 41 42 43 44 45 46 47 48 49 50
000
ASUS41 KAKQ 050715
RWRAKQ

REGIONAL WEATHER ROUNDUP
NATIONAL WEATHER SERVICE WAKEFIELD VA
300 AM EDT WED AUG 05 2015

Note: "fair" indicates few or no clouds below 12,000 feet with no
significant weather and/or obstructions to visibility. * = Denotes
station may not report precipitation (e.g., rain,snow,etc.),
thunder or fog.

VAZ042-051-052>054-056-050800-
NORTHERN VIRGINIA

CITY           SKY/WX    TMP DP  RH WIND       PRES   REMARKS
WASH NATIONAL  CLOUDY    77  70  79 N6        29.93F
DULLES         CLOUDY    68  68 100 CALM      29.95S
FORT BELVOIR   CLOUDY    69  67  93 CALM      29.93S
QUANTICO       CLOUDY    73  67  81 NW3       29.93F
FREDERICKSBRG* CLOUDY    74  69  84 CALM      29.93S
STAFFORD*      CLOUDY    67  65  94 CALM      29.97F
WARRENTON      CLOUDY    67  67 100 CALM      29.94F FOG
CULPEPER*      CLOUDY    66  66  97 CALM      29.95F
MANASSAS*      CLOUDY    68  68 100 CALM      29.94S
LEESBURG*      CLOUDY    68  68 100 CALM      29.96S FOG
WINCHESTER     CLOUDY    68  66  94 CALM      29.97S
FRONT ROYAL*   FAIR      66  64  94 CALM      29.96F
LURAY*         FAIR      64  64 100 CALM      29.98S
$$

VAZ048-049-060>072-079>083-050800-
CENTRAL AND SOUTH CENTRAL VIRGINIA

CITY           SKY/WX    TMP DP  RH WIND       PRES   REMARKS
RICHMOND       MOCLDY    79  71  76 W3        29.93S
CHESTERFIELD*  FAIR      75  63  64 S3        29.95S
PETERSBURG*    MOCLDY    76  76 100 SW3       29.95S
HANOVER        CLOUDY    72  70  93 NW3       29.95S
TAPPAHANNOCK*  CLOUDY    74  70  87 CALM      29.93S
QUINTON*       FAIR      76  73  91 CALM      29.92S
CHARLOTTSVILLE CLOUDY    71  65  81 N5        29.95F
GORDONSVILLE*  FAIR      66  66 100 CALM      29.93F
ORANGE*        CLOUDY    68  68 100 CALM      29.96F
LOUISA*        CLOUDY    68  66  94 CALM      29.93F
BUMPASS*       FAIR      69  67  93 CALM      29.94S
FARMVILLE*     CLOUDY    71  71 100 CALM      29.95S
CREWE*         FAIR     N/A N/A N/A S3        29.96R
FORT PICKETT*  FAIR      74  72  94 CALM      29.96S
CHASE CITY*    FAIR      74  74 100 CALM      29.97F
CLARKSVILLE*   FAIR      72  72 100 CALM      29.97S
SOUTH HILL*    MOCLDY    74  72  93 CALM      30.02S
LAWRENCEVILLE* FAIR      73  72  94 CALM      29.95S
EMPORIA*       MOCLDY    72  70  94 CALM      29.95F
$$

VAZ088>098-050800-
SOUTHEAST VIRGINIA

CITY           SKY/WX    TMP DP  RH WIND       PRES   REMARKS
NORFOLK        PTCLDY    78  74  87 W9        29.91F
VIRGINIA BEACH PTCLDY    79  74  84 W8        29.90F
NORFOLK NAVAL  MOCLDY    77  73  87 W9        29.92F
WEST POINT*    PTCLDY    80  72  76 W5        29.93S
SALUDA*        FAIR      78  73  85 SW6       29.90S
NEWPORT NEWS   PTCLDY    77  74  90 SW9       29.91F
LANGLEY AFB    PTCLDY    77  74  91 SW10      29.91F
FORT EUSTIS    PTCLDY    77  77 100 VRB3      29.90F
WILLIAMSBURG*  PTCLDY    81  73  78 W5        29.93F
HR EXEC AP*    FAIR      75  72  88 W6        29.94F
FRANKLIN*      PTCLDY    74  73  93 CALM      29.93F
WAKEFIELD      PTCLDY    76  72  87 SW5       29.93F
$$

VAZ020-022-025-037-045-050800-
WEST CENTRAL AND SOUTHWEST VIRGINIA

CITY           SKY/WX    TMP DP  RH WIND       PRES   REMARKS
STAUNTON*      CLOUDY    71  64  78 CALM      30.02S
WAYNESBORO*    FAIR      69  63  83 SW3       30.01F
HOT SPRINGS VA CLOUDY    67  65  94 W12       30.11F
LYNCHBURG      MOCLDY    70  68  93 SW6       30.00S
DANVILLE       PTCLDY    71  67  87 SW5       29.99S
SOUTH BOSTON*  FAIR      71  69  93 CALM      29.97F
MARTINSVILLE   PTCLDY    70  70 100 CALM      30.03F
ROANOKE        CLOUDY    76  64  66 NW7       30.01F
BLACKSBURG     MOCLDY    70  65  84 W5        30.09F
DUBLIN*          N/A     72  64  74 CALM      30.08F
MARION*        MOCLDY    67  65  93 W6        30.13F
HILLSVILLE*    MOCLDY    69  63  79 W6        30.10F
RICHLANDS*     FAIR      66  64  94 S3        30.11F
WISE*          CLOUDY    68  61  77 S5        30.11F
ABINGDON*      PTCLDY    67  65  94 CALM      30.09F
$$

MDZ021>025-VAZ099-100-050800-
SOUTHERN MARYLAND AND THE DELMARVA PENINSULA

CITY           SKY/WX    TMP DP  RH WIND       PRES   REMARKS
PATUXENT RIVER PTCLDY    77  71  82 NW7       29.91S
BAY BRIDGE APT   N/A     72  70  94 CALM      29.93R
LEONARDTOWN    PTCLDY    73  68  83 CALM      29.94R
DOVER          PTCLDY    72  72 100 S2        29.90F
GEORGETOWN     MOCLDY    69  68  96 N3        29.93S
EASTON         PTCLDY    72  72 100 CALM      29.96R
CAMBRIDGE      PTCLDY    72  68  88 CALM      29.92R
SALISBURY      CLOUDY    73  71  93 E3        29.92S
OCEAN CITY       N/A    N/A N/A N/A MISG      29.94F
WALLOPS ISLAND CLOUDY    76  75  97 NE6       29.93R
ACCOMACK*      CLEAR    N/A N/A N/A SW9       29.90S
$$

NCZ012>017-030>032-050800-
NORTH CENTRAL AND EASTERN NORTH CAROLINA

CITY           SKY/WX    TMP DP  RH WIND       PRES   REMARKS
ROANOKE RAPIDS FAIR      72  70  94 SW5       29.95S
RALEIGH        PTCLDY    75  71  87 CALM      29.97F
ELIZABETH CITY PTCLDY    75  74  96 W7        29.92S
AHOSKIE*       PTCLDY   N/A N/A N/A CALM      29.94F
EDENTON*         N/A     78  74  89 W7        29.93R
CURRITUCK*     PTCLDY    77  74  91 SW6       29.92S
KILL DEVIL HLS PTCLDY    78  75  91 SW5       29.91R
MANTEO         PTCLDY    77  76  96 W7        29.92S
CAPE HATTERAS  CLOUDY    79  76  90 W5        29.92F
TARBORO*         N/A     74  72  93 W3        29.95F
GOLDSBORO      CLEAR     75  75 100 SW2       29.94F
WASHINGTON     CLEAR     74  73  95 W3        29.94S
GREENVILLE     CLEAR     73  73 100 W6        29.96F
NEW BERN       CLEAR     77  74  90 W6        29.96S
WILMINGTON     PTCLDY    78  77  96 SW8       29.97F
$$

VAZ048-050800-
ELSEWHERE

CITY           SKY/WX    TMP DP  RH WIND       PRES   REMARKS
HARRISBURG PA  MOCLDY    68  60  75 CALM      29.93S
BALTIMORE      CLOUDY    70  68  93 VRB3      29.93S
ANNAPOLIS      MOCLDY    75  71  87 NE3       29.92S
ANDREWS AFB    CLOUDY    73  71  92 N7        29.93S
PHILADELPHIA   MOCLDY    77  59  53 S7        29.92F
HENDERSON NC   CLEAR     75  70  86 SW3       29.97F
GREENSBORO     PTCLDY    78  65  63 NW8       30.01S
ROCKY MOUNT    CLEAR     75  73  93 SW3       29.95F
$$

VAZ100-050800-
MARINE

STATION/POSITION TIME  TEMP    WIND        PRES    WAVE   SWELL
                       AIR SEA DIR/SP/G            HT/PER HT/PER
                 (UTC) (F)     (DEG/KT/KT) (MB)    (FT/S) (FT/S)
BRANDYWINE LGT   0600   73 74   40/  5/  7 1013.8R
CAPE MAY NJ      0600   75 76  320/  3/  5 1013.2R
LEWES DE         0600   74 75   20/  4/  5 1013.0R
15NM E FENWICK I 0650   75 79  240/ 10/ 12 1013.7R   4/ 6   3/ 6
OCEAN-CITY-INLET 0600   70 72  320/ 11/ 13 1013.3R
WACHAPREAGUE VA  0600   79 84  230/  6/ 10 1012.5F
GOOSES REEF MD   0700   79 82   30/  6/ 10 1014.3R
COVE POINT MD    0600   78     350/ 10/ 13 1013.5F
SOLOMONS ISLAND  0600      84                N/A
BISHOPS HEAD MD  0600   81 81  300/  6/ 10 1011.7F
PINEY POINT MD   0600          360/ 10/ 11   N/A
POTOMAC MD       0700   80 83  280/ 10/ 10 1011.8F   1/ 2
CAMBRIDGE MD     0600   74 85   40/  4/  6 1012.1S
LEWISETTA VA     0600   79 84  290/  7/  8 1012.4F
RAPPAHANNOCK LGT 0600          220/ 19/ 20 1013.0F
STINGRAY PT      0700   80 83  250/ 16/ 19 1012.3F   2/ 2
YORK RVR RNG VA  0600   80     230/ 18/ 21 1012.1F
YORKTOWN VA      0600   78 84  230/ 12/ 15 1012.8F
JAMESTOWN VA     0700   77 85  230/ 10/ 12   N/A
DOMINION TERM VA 0600   79     230/ 12/ 14 1013.1F
KIPTOPEKE VA     0600      82  250/ 16/ 19   N/A
CHES BAY BRIDGE  0600   79 79  220/ 15/ 17 1012.7F
CAPE HENRY VA    0600   78     210/ 10/ 15   N/A
CHESAPEAKE LGHT  0600   77     220/ 16/ 16 1013.1F
WILLOUBY STN VA  0600   78     250/  9/ 13 1014.2F
CAPE HENRY BUOY  0628      77                N/A     4/ 6   2/11
1ST LANDING BUOY 0700      79              1012.3F   1/ 3
CAPE CHARLES BUO 0626      74                N/A     3/ 6   2/12
OFFSHORE WE BUOY 0611      80                N/A     4/ 6   2/ 8
64NM E OF VA BCH 0650   80 81  200/ 16/ 19 1012.9F   6/ 7   2/ 9
DUCK PIER NC     0600   78 62  220/  7/ 10 1012.5F
44100 DUCK FRF   0624      77                N/A     3/ 6
44056 DUCK FRF   0611      64                N/A     3/ 6
OREGON INLET NC  0600   80 82  240/ 11/ 12 1013.1F
HATTERAS NC      0600   78 80  250/  9/ 11 1013.1F
DIAMOND SHLS NC  0650   82 84  230/ 17/ 21 1013.2F   7/ 5   2/12
CAPE LOOKOUT NC  0700   80     250/ 13/ 15 1013.8F
$$


USA.gov is the U.S. government's official web portal to all federal, state and local government web resources and services.